DW7756 Weather Reports


Display with metric or nautical units.
time (UTC)temp
F
wind
direction
speed
MPH
gust
MPH
rain 1hr
in
rain 24hr
in
rain mn
in
humidity
%
barometer
mb
20260505124536 74 128 2.0 6.0 0.00 0.00 0.00 74 1016.2
20260505123034 73 116 3.0 9.0 0.00 0.00 0.00 78 1016.2
20260505121537 70 84 2.0 6.0 0.00 0.00 0.00 83 1016.1
20260505120031 68 75 1.0 3.0 0.00 0.00 0.00 86 1016.2
20260505114529 66 0 1.0 3.0 0.00 0.00 0.00 86 1015.9
20260505113040 64 0 0.0 0.0 0.00 0.00 0.00 85 1015.7
20260505111541 64 0 0.0 0.0 0.00 0.00 0.00 84 1015.6
20260505101535 65 0 0.0 0.0 0.00 0.00 0.00 84 1015.2
20260505100034 65 0 0.0 0.0 0.00 0.00 0.00 83 1015.2
20260505094531 65 0 0.0 0.0 0.00 0.00 0.00 82 1015.0
20260505093034 66 0 0.0 0.0 0.00 0.00 0.00 82 1014.9
20260505091530 66 0 0.0 0.0 0.00 0.00 0.00 82 1015.0
20260505090031 66 0 0.0 2.0 0.00 0.00 0.00 81 1014.9
20260505084532 67 84 0.0 2.0 0.00 0.00 0.00 81 1014.7
20260505083033 67 91 1.0 2.0 0.00 0.00 0.00 81 1014.6
20260505081530 67 100 0.0 2.0 0.00 0.00 0.00 80 1014.7
20260505080031 67 69 1.0 3.0 0.00 0.00 0.00 80 1014.7
20260505074531 67 0 0.0 3.0 0.00 0.00 0.00 79 1014.9
20260505073031 67 92 1.0 3.0 0.00 0.00 0.00 79 1014.9
20260505071532 67 86 1.0 2.0 0.00 0.00 0.00 79 1015.1
20260505070030 67 86 1.0 4.0 0.00 0.00 0.00 79 1015.1
20260505064533 67 96 1.0 4.0 0.00 0.00 0.00 79 1015.3
20260505063031 67 99 1.0 3.0 0.00 0.00 0.00 78 1015.2
20260505061547 67 0 0.0 2.0 0.00 0.00 0.00 78 1015.3
20260505060032 67 88 0.0 2.0 0.00 0.00 0.00 77 1015.5
20260505054542 68 88 0.0 3.0 0.00 0.00 0.00 76 1015.7
20260505053031 68 97 0.0 2.0 0.00 0.00 0.00 76 1015.9
20260505051531 68 0 0.0 2.0 0.00 0.00 0.00 75 1016.1
20260505041532 69 99 1.0 3.0 0.00 0.00 0.00 74 1016.4
20260505040040 69 92 0.0 4.0 0.00 0.00 0.00 74 1016.4
20260505034537 69 74 1.0 4.0 0.00 0.00 0.00 73 1016.6
20260505033030 69 91 1.0 3.0 0.00 0.00 0.00 73 1016.8
20260505031538 69 86 0.0 4.0 0.00 0.00 0.00 73 1016.6
20260505030030 69 104 2.0 5.0 0.00 0.00 0.00 73 1016.8
20260505024531 69 90 1.0 4.0 0.00 0.00 0.00 73 1016.9
20260505023031 69 93 0.0 4.0 0.00 0.00 0.00 72 1017.0
20260505021533 69 73 0.0 3.0 0.00 0.00 0.00 72 1016.8
20260505020039 69 103 1.0 3.0 0.00 0.00 0.00 72 1016.7
20260505014532 69 84 1.0 3.0 0.00 0.00 0.00 71 1016.6
20260505013031 69 91 1.0 3.0 0.00 0.00 0.00 71 1016.4
20260505011530 70 0 0.0 2.0 0.00 0.00 0.00 70 1016.5
20260505010031 70 0 0.0 6.0 0.00 0.00 0.00 69 1016.5
20260505004532 70 80 2.0 7.0 0.00 0.00 0.00 69 1016.2
20260505003031 71 98 2.0 6.0 0.00 0.00 0.00 68 1016.1
20260505001530 71 86 1.0 4.0 0.00 0.00 0.00 67 1016.1
20260505000043 72 58 2.0 9.0 0.00 0.00 0.00 66 1015.7
20260504234533 72 90 4.0 10.0 0.00 0.00 0.00 65 1015.7
20260504233034 73 96 3.0 8.0 0.00 0.00 0.00 65 1015.5
20260504231531 73 71 1.0 4.0 0.00 0.00 0.00 63 1015.6
20260504230032 73 55 3.0 9.0 0.00 0.00 0.00 62 1015.8
20260504224531 74 51 3.0 9.0 0.00 0.00 0.00 62 1015.6
20260504223031 75 119 3.0 10.0 0.00 0.00 0.00 61 1015.7
20260504221530 76 78 4.0 10.0 0.00 0.00 0.00 61 1015.6
20260504220043 75 62 4.0 13.0 0.00 0.00 0.00 61 1015.6
20260504214535 76 58 4.0 11.0 0.00 0.00 0.00 60 1015.7
20260504213045 76 74 2.0 11.0 0.00 0.00 0.00 60 1015.6
20260504211537 77 51 3.0 11.0 0.00 0.00 0.00 59 1015.7
20260504210029 76 111 3.0 8.0 0.00 0.00 0.00 60 1015.7
20260504204539 76 80 3.0 11.0 0.00 0.00 0.00 60 1015.8
20260504203034 77 79 3.0 12.0 0.00 0.00 0.00 59 1016.1
20260504201529 77 114 3.0 11.0 0.00 0.00 0.00 60 1016.2
20260504200033 77 107 3.0 10.0 0.00 0.00 0.00 57 1016.3
20260504194532 77 69 5.0 14.0 0.00 0.00 0.00 58 1016.3
20260504193031 77 69 3.0 15.0 0.00 0.00 0.00 57 1016.4
20260504191535 78 33 4.0 12.0 0.00 0.00 0.00 55 1016.6
20260504190033 78 55 5.0 13.0 0.00 0.00 0.00 57 1016.9
20260504184529 78 71 3.0 11.0 0.00 0.00 0.00 57 1017.0
20260504183030 78 55 4.0 11.0 0.00 0.00 0.00 56 1017.2
20260504181534 78 74 5.0 11.0 0.00 0.00 0.00 56 1017.3
20260504180043 78 98 3.0 10.0 0.00 0.00 0.00 59 1017.3
20260504174532 78 74 4.0 14.0 0.00 0.00 0.00 56 1017.3
20260504173032 79 69 4.0 13.0 0.00 0.00 0.00 55 1017.4
20260504171529 80 59 2.0 15.0 0.00 0.00 0.00 56 1017.5